TIBA-1

Last updated on Thu Oct 30 2025 00:02:51 GMT+0000 (Coordinated Universal Time)

1 44800U 19080A 25302.26404005 .00000166 00000+0 00000+0 0 9998 2 44800 0.0583 344.4054 0002379 228.2688 315.7779 1.00273901 21741
UTC large
Height (km)
Speed (km/s)
/
Latitude / Longitude
Inclination (degrees)
Orbital Period (minutes)
Azimuth
Elevation
Range (km)
Doppler Factor

Next 0 passes for location: London (51.5072 / 0.1276)

Sorry there are no passes over London.